{"data":{"norad_id":43582,"intl_designator":"2018-062B","name":"BEIDOU-3 M6 (C24)","alt_names":[],"object_type":"PAYLOAD","status":"ACTIVE","operator":null,"country":"PRC","launch_date":"2018-07-29","launch_site_code":"XICLF","launch_vehicle":null,"mission":null,"orbit_class":"UNKNOWN","rcs_meters":null,"size_class":null,"mass_kg":null,"dimensions":null,"purposes":["nav"],"wikipedia_slug":null,"has_3d_model":false,"image_url":null,"decayed_at":null,"tle_current":{"epoch":"2026-09-18T09:37:51.068064Z","epoch_age_seconds":195686,"freshness":"STALE","line1":"1 43582U 18062B   26261.40128551 -.00000021  00000+0  00000+0 0  9994","line2":"2 43582  54.0821 179.1259 0006579  30.9685 329.0923  1.86228376 55377","mean_motion":1.86228376,"eccentricity":0.0006579,"inclination_deg":54.0821,"raan_deg":179.1259,"arg_perigee_deg":30.9685,"mean_anomaly_deg":329.0923,"bstar":0,"rev_number":5537,"period_min":773.24413761735,"perigee_km":21509.954045699,"apogee_km":21546.67335353,"semimajor_km":27906.450699614,"source":"CELESTRAK","updated_at":"2026-09-20T09:00:46.708795Z"}}}